Location: Qazi Observatory
(41.6337°N, 88.1517°W)
Time: 20:19:25
(UTC-05:00)

Amateur Radio Satellites - All Passes

Search period start: 29 June 2016 19:49
Search period end: 30 June 2016 19:49
Location: Qazi Observatory, 41.6337°N, 88.1517°W

Satellite Date Start Highest point End Downlink Frequencies (MHz)
Time Altitude Azimuth
CUBEBUG 2 29 Jun 20:04:07 20:07:35 26° 68° (ENE) 20:11:07 437.445
AAUSAT CUBESAT 2 29 Jun 20:09:02 20:12:51 34° 71° (ENE) 20:16:40 437.432
STRAND 1 29 Jun 20:13:24 20:18:35 78° 103° (ESE) 20:23:43 437.568
CINEMA 3 29 Jun 20:14:42 20:18:49 70° 258° (WSW) 20:23:00 145.822/145.860
GOMX 1 29 Jun 20:16:16 20:16:36 10° 270° (W) 20:16:55 467.674
Cosmos 2499 29 Jun 20:16:50 20:24:40 43° 287° (WNW) 20:32:59 435.465 / 435.565
M-CUBED/EXP-1 PRIME 29 Jun 20:24:27 20:27:29 38° 68° (ENE) 20:30:35 437.505
HO-68 29 Jun 20:25:05 20:32:11 67° 257° (WSW) 20:39:22 435.675
ZACube-1 29 Jun 20:25:19 20:28:27 20° 66° (ENE) 20:31:38 437.345
Oscar 11 29 Jun 20:32:13 20:35:50 26° 68° (ENE) 20:39:29 145.826/435.025
FUNcube-1 29 Jun 20:41:36 20:45:13 28° 68° (ENE) 20:48:54 145.935
COMPASS 1 29 Jun 20:43:57 20:48:09 74° 258° (WSW) 20:52:24 437.405
CANX-2 29 Jun 20:47:47 20:51:33 30° 264° (W) 20:55:22 2200.000
UWE-3 29 Jun 20:48:05 20:52:10 53° 73° (ENE) 20:56:22 435.000/436.395/437.385
AO-85 29 Jun 20:51:00 20:55:57 37° 114° (ESE) 21:00:47 145.980
PRISM 29 Jun 20:53:49 20:57:25 29° 97° (E) 21:00:57 437.425
CUTE 1.7 + AOD 2 29 Jun 21:08:09 21:11:25 21° 267° (W) 21:14:43 437.475
SEEDS 29 Jun 21:09:17 21:12:55 27° 265° (W) 21:16:36 437.485
AUBIESAT-1 29 Jun 21:18:16 21:21:25 44° 255° (WSW) 21:24:38 437.475
GONETS M04 29 Jun 21:19:18 21:23:10 13° 304° (WNW) 21:27:03
RS-15 29 Jun 21:19:31 21:31:52 79° 242° (WSW) 21:44:03 29.354- 29.394
HUMSAT D 29 Jun 21:26:58 21:30:13 22° 67° (ENE) 21:33:30 437.325/437.525
CUBEBUG 2 29 Jun 21:40:37 21:44:08 26° 265° (W) 21:47:45 437.445
DELFI C3 29 Jun 21:44:43 21:48:44 75° 76° (ENE) 21:52:47 145.870
AAUSAT CUBESAT 2 29 Jun 21:45:21 21:48:25 20° 267° (W) 21:51:30 437.432
STRAND 1 29 Jun 21:54:24 21:57:05 14° 300° (WNW) 21:59:45 437.568
ZACube-1 29 Jun 22:00:38 22:04:30 35° 263° (W) 22:08:27 437.345
M-CUBED/EXP-1 PRIME 29 Jun 22:01:50 22:02:18 10° 263° (W) 22:02:47 437.505
TIGRISAT 29 Jun 22:02:01 22:04:00 12° 90° (E) 22:05:57 435.000
UNISAT 6 29 Jun 22:06:58 22:09:42 15° 91° (E) 22:12:24 437.425
Oscar 11 29 Jun 22:08:10 22:11:53 28° 264° (W) 22:15:38 145.826/435.025
FUNcube-1 29 Jun 22:17:59 22:21:26 24° 266° (W) 22:24:58 145.935
CUBEBUG 1 29 Jun 22:23:01 22:24:38 12° 62° (ENE) 22:26:14 437.445
UWE-3 29 Jun 22:27:07 22:29:00 13° 270° (W) 22:30:56 435.000/436.395/437.385
PRISM 29 Jun 22:29:23 22:32:34 22° 293° (WNW) 22:35:44 437.425
AO-85 29 Jun 22:31:29 22:36:27 36° 311° (NW) 22:41:16 145.980
VELOX 1 29 Jun 22:33:46 22:36:14 15° 63° (ENE) 22:38:40 145.980
ANTELSAT 29 Jun 22:45:27 22:49:48 37° 98° (E) 22:54:09 437.575/2403.000
Cosmos 2491 29 Jun 22:49:08 22:51:23 11° 72° (ENE) 22:53:38 435.465 / 435.565
HUMSAT D 29 Jun 23:01:56 23:05:39 31° 263° (W) 23:09:27 437.325/437.525
UKube-1 29 Jun 23:06:26 23:09:35 20° 65° (ENE) 23:12:45 .
SPROUT 29 Jun 23:06:28 23:08:33 13° 63° (ENE) 23:10:38 437.525
AISAT 29 Jun 23:12:52 23:16:56 38° 70° (ENE) 23:21:01 437.250
ESTCUBE 1 29 Jun 23:14:01 23:18:30 61° 74° (ENE) 23:22:59 437.505/2401.250
YUBILEINY 29 Jun 23:27:46 23:36:17 49° 75° (ENE) 23:44:45 435.215
DX 1 29 Jun 23:27:53 23:31:58 41° 71° (ENE) 23:36:04 434.975-435.025
RS-15 29 Jun 23:34:32 23:42:18 20° 263° (W) 23:50:03 29.354- 29.394
TIGRISAT 29 Jun 23:36:27 23:41:06 68° 285° (WNW) 23:45:46 435.000
50 SAT 29 Jun 23:37:18 23:41:01 74° 75° (ENE) 23:44:45 437.505
NANOSAT C BR1 29 Jun 23:37:28 23:40:40 20° 94° (E) 23:43:51 145.865
QB50P1 29 Jun 23:41:05 23:44:33 24° 95° (E) 23:47:59 145.935-145.965
UNISAT 6 29 Jun 23:42:09 23:46:42 56° 287° (WNW) 23:51:18 437.425
Cosmos 2504 29 Jun 23:43:56 23:50:20 21° 62° (ENE) 23:56:32 435.465 / 435.565
POPSAT HIP 1 29 Jun 23:44:22 23:47:56 25° 95° (E) 23:51:28 437.405
SO-50 29 Jun 23:51:37 23:55:57 36° 49° (NE) 00:00:09 436.795
CUBEBUG 1 29 Jun 23:56:00 00:00:21 70° 259° (W) 00:04:41 437.445
QB50P2 29 Jun 23:56:45 00:00:44 37° 98° (E) 00:04:42 145.880/145.840
DUCHIFAT 1 29 Jun 23:56:53 00:00:41 31° 97° (E) 00:04:27 145.980
POLYITAN 1 29 Jun 23:59:22 00:03:22 38° 98° (E) 00:07:21 437.675
JAS-2 30 Jun 00:07:21 00:08:21 10° 86° (E) 00:09:20 435.910
VELOX 1 30 Jun 00:07:53 00:12:13 56° 259° (W) 00:16:34 145.980
TISAT 1 30 Jun 00:20:14 00:23:24 22° 67° (ENE) 00:26:35 437.305
ANTELSAT 30 Jun 00:22:36 00:26:17 23° 293° (WNW) 00:29:58 437.575/2403.000
Cosmos 2491 30 Jun 00:37:45 00:46:23 66° 92° (E) 00:55:00 435.465 / 435.565
SPROUT 30 Jun 00:39:50 00:44:01 57° 260° (W) 00:48:13 437.525
UKube-1 30 Jun 00:41:23 00:45:23 37° 262° (W) 00:49:24 .
BUGSAT 1 30 Jun 00:46:35 00:50:36 50° 100° (E) 00:54:37 437.445
AISAT 30 Jun 00:50:21 00:53:32 19° 266° (W) 00:56:44 437.250
ESTCUBE 1 30 Jun 00:53:35 00:55:41 13° 270° (W) 00:57:48 437.505/2401.250
DX 1 30 Jun 01:05:25 01:08:20 18° 267° (W) 01:11:16 434.975-435.025
NANOSAT C BR1 30 Jun 01:12:37 01:16:28 34° 290° (WNW) 01:20:18 145.865
QB50P1 30 Jun 01:16:36 01:20:18 30° 291° (WNW) 01:24:01 145.935-145.965
POPSAT HIP 1 30 Jun 01:20:01 01:23:40 28° 291° (WNW) 01:27:18 437.405
YUBILEINY 30 Jun 01:24:59 01:32:49 37° 275° (W) 01:40:39 435.215
SWISSCUBE 30 Jun 01:28:15 01:32:17 28° 67° (ENE) 01:36:20 437.505
SO-50 30 Jun 01:32:22 01:36:17 27° 247° (WSW) 01:40:04 436.795
DUCHIFAT 1 30 Jun 01:32:52 01:36:12 23° 293° (WNW) 01:39:32 145.980
QB50P2 30 Jun 01:33:11 01:36:17 20° 294° (WNW) 01:39:22 145.880/145.840
POLYITAN 1 30 Jun 01:35:50 01:38:54 19° 294° (WNW) 01:41:58 437.675
Cosmos 2504 30 Jun 01:36:00 01:44:57 87° 264° (W) 01:53:27 435.465 / 435.565
BEESAT 2 30 Jun 01:39:22 01:40:48 12° 108° (ESE) 01:42:13 435.950
PCSat 30 Jun 01:40:07 01:45:14 45° 113° (ESE) 01:50:24 145.827
JAS-2 30 Jun 01:48:46 01:54:24 85° 286° (WNW) 01:59:37 435.910
O/OREOS (USA 219) 30 Jun 01:49:02 01:52:24 21° 102° (ESE) 01:55:47 437.305
BEESAT 30 Jun 01:52:46 01:57:17 43° 70° (ENE) 02:01:49 436.000
Oscar 19 30 Jun 01:53:58 01:58:48 40° 98° (E) 02:03:36 437.125/150
ITUPSAT 1 30 Jun 01:54:48 01:59:21 44° 70° (ENE) 02:03:55 437.325
TISAT 1 30 Jun 01:55:09 01:58:52 32° 263° (W) 02:02:37 437.305
ITAMSAT 1 30 Jun 02:22:56 02:24:01 11° 88° (E) 02:25:05 435.822/435.867
Gurwin Techsat 1B 30 Jun 02:23:10 02:27:59 34° 97° (E) 02:32:45 435.225
BUGSAT 1 30 Jun 02:23:22 02:25:34 14° 296° (WNW) 02:27:46 437.445
BEESAT 3 30 Jun 02:33:09 02:37:04 88° 130° (SE) 02:41:02 437.485
Cosmos 2491 30 Jun 02:36:41 02:43:53 28° 293° (WNW) 02:51:07 435.465 / 435.565
AIST 1 30 Jun 02:58:20 02:59:35 11° 68° (ENE) 03:00:50
SWISSCUBE 30 Jun 03:05:40 03:09:57 32° 263° (W) 03:14:16 437.505
BEESAT 2 30 Jun 03:14:11 03:18:06 61° 304° (NW) 03:22:04 435.950
PCSat 30 Jun 03:24:08 03:28:48 29° 311° (NW) 03:33:31 145.827
O/OREOS (USA 219) 30 Jun 03:27:23 03:31:33 37° 299° (WNW) 03:35:44 437.305
Cosmos 2504 30 Jun 03:31:37 03:36:56 18° 284° (WNW) 03:42:09 435.465 / 435.565
BEESAT 30 Jun 03:31:43 03:35:15 20° 267° (W) 03:38:48 436.000
GONETS M04 30 Jun 03:32:13 03:35:28 12° 55° (NE) 03:38:42
Oscar 19 30 Jun 03:33:45 03:37:54 25° 295° (WNW) 03:42:02 437.125/150
ITUPSAT 1 30 Jun 03:33:52 03:37:22 20° 267° (W) 03:40:54 437.325
JAS-2 30 Jun 03:36:36 03:38:27 12° 306° (NW) 03:40:17 435.910
KKS-1 30 Jun 03:53:10 03:57:35 89° 259° (W) 04:02:02 437.445
CUBESAT XI-V 30 Jun 03:54:09 03:55:02 10° 60° (ENE) 03:55:56 437.345
MOZHAYETS 4 30 Jun 03:54:56 03:59:34 83° 75° (ENE) 04:04:14
ITAMSAT 1 30 Jun 03:58:53 04:04:10 89° 279° (W) 04:09:23 435.822/435.867
Gurwin Techsat 1B 30 Jun 04:03:11 04:07:51 32° 293° (WNW) 04:12:29 435.225
AIST 2 30 Jun 04:10:11 04:13:40 27° 114° (ESE) 04:17:10 435.215
BEESAT 3 30 Jun 04:13:44 04:15:21 12° 321° (NW) 04:16:58 437.485
Cosmos 2499 30 Jun 04:16:15 04:21:24 16° 58° (ENE) 04:26:22 435.465 / 435.565
STARS 30 Jun 04:20:55 04:25:16 88° 256° (WSW) 04:29:39 437.465
AO-7 30 Jun 04:31:43 04:40:02 62° 104° (ESE) 04:48:16 29.400- 29.500
AIST 1 30 Jun 04:33:25 04:37:38 63° 265° (W) 04:41:50
HORYU 2 30 Jun 05:09:39 05:13:33 28° 96° (E) 05:17:27 437.375
AO-85 30 Jun 05:23:06 05:27:10 30° 47° (NE) 05:30:54 145.980
GONETS M04 30 Jun 05:25:40 05:34:20 63° 78° (ENE) 05:42:59
CUBESAT XI-V 30 Jun 05:26:58 05:31:40 90° 82° (E) 05:36:24 437.345
NOAA 15 30 Jun 05:36:57 05:38:48 12° 89° (E) 05:40:38 137.62
ITAMSAT 1 30 Jun 05:40:42 05:42:50 13° 302° (WNW) 05:44:59 435.822/435.867
AIST 2 30 Jun 05:48:25 05:52:04 30° 311° (NW) 05:55:45 435.215
STRAND 1 30 Jun 05:53:06 05:55:58 15° 60° (ENE) 05:58:50 437.568
PHONESAT 2.4 30 Jun 06:06:16 06:08:42 22° 155° (SSE) 06:11:09 2401.200-2431.200
Cosmos 2499 30 Jun 06:07:22 06:16:12 77° 81° (E) 06:24:26 435.465 / 435.565
BRITE-PL 30 Jun 06:10:31 06:13:45 22° 94° (E) 06:17:00 437.365/2234.400
CUSAT 1 30 Jun 06:13:58 06:19:24 22° 88° (E) 06:24:15 437.405
Cubesat XI-IV 30 Jun 06:18:22 06:22:33 23° 93° (E) 06:26:42 437.490
AO-7 30 Jun 06:25:10 06:32:18 33° 303° (WNW) 06:39:24 29.400- 29.500
NOAA 18 30 Jun 06:26:22 06:31:10 29° 96° (E) 06:35:55 137.9125
GOMX 1 30 Jun 06:35:24 06:38:24 19° 94° (E) 06:41:29 467.674
HORYU 2 30 Jun 06:46:13 06:50:02 28° 292° (WNW) 06:53:50 437.375
DANDE 30 Jun 06:51:27 06:57:45 25° 86° (E) 07:03:40 436.750
CUTE-I 30 Jun 06:51:28 06:56:39 45° 99° (E) 07:01:46 437.470
LilacSat-2 30 Jun 07:02:47 07:06:39 61° 101° (E) 07:10:30 437.200
AO-85 30 Jun 07:03:42 07:07:33 29° 247° (WSW) 07:11:08 145.980
NOAA 15 30 Jun 07:13:55 07:19:12 83° 285° (WNW) 07:24:26 137.62
GONETS M04 30 Jun 07:23:29 07:30:28 28° 278° (W) 07:37:30
ISS 30 Jun 07:24:51 07:27:06 17° 132° (SE) 07:29:22 145.825
DOVE 4 30 Jun 07:26:07 07:30:00 31° 97° (E) 07:34:04 437.250
STRAND 1 30 Jun 07:29:22 07:34:30 74° 257° (WSW) 07:39:42 437.568
PHONESAT 2.4 30 Jun 07:41:59 07:45:01 61° 170° (S) 07:48:03 2401.200-2431.200
PRISM 30 Jun 07:43:37 07:46:55 23° 67° (ENE) 07:50:12 437.425
BRITE-PL 30 Jun 07:48:42 07:52:18 29° 290° (WNW) 07:55:55 437.365/2234.400
HO-68 30 Jun 07:53:22 07:59:00 24° 93° (E) 08:04:35 435.675
CUSAT 1 30 Jun 07:53:26 08:01:08 71° 281° (W) 08:07:30 437.405
Cubesat XI-IV 30 Jun 07:57:41 08:02:50 47° 290° (WNW) 08:07:57 437.490
Cosmos 2499 30 Jun 08:02:02 08:08:16 23° 281° (WNW) 08:14:15 435.465 / 435.565
NOAA 18 30 Jun 08:06:44 08:11:52 39° 293° (WNW) 08:16:59 137.9125
CINEMA 3 30 Jun 08:08:44 08:12:40 27° 96° (E) 08:16:43 145.822/145.860
GOMX 1 30 Jun 08:12:44 08:16:38 37° 288° (WNW) 08:20:40 467.674
COMPASS 1 30 Jun 08:27:41 08:30:28 17° 92° (E) 08:33:14 437.405
DANDE 30 Jun 08:31:35 08:40:02 76° 280° (W) 08:47:40 436.750
CANX-2 30 Jun 08:32:03 08:36:11 44° 99° (E) 08:40:15 2200.000
CUTE-I 30 Jun 08:32:07 08:36:24 25° 296° (WNW) 08:40:39 437.470
UWE-3 30 Jun 08:39:14 08:41:00 12° 89° (E) 08:42:47 435.000/436.395/437.385
LilacSat-2 30 Jun 08:39:28 08:40:26 11° 297° (WNW) 08:41:24 437.200
CUTE 1.7 + AOD 2 30 Jun 08:51:36 08:55:52 65° 100° (E) 09:00:05 437.475
SEEDS 30 Jun 08:52:17 08:56:23 46° 99° (E) 09:00:26 437.485
NOAA 15 30 Jun 08:56:26 08:58:07 12° 303° (WNW) 08:59:49 137.62
ISS 30 Jun 09:00:04 09:03:16 54° 329° (NNW) 09:06:29 145.825
TIGRISAT 30 Jun 09:02:12 09:03:25 11° 60° (ENE) 09:04:38 435.000
DOVE 4 30 Jun 09:04:03 09:07:36 25° 291° (WNW) 09:11:18 437.250
UNISAT 6 30 Jun 09:06:59 09:09:06 13° 62° (ENE) 09:11:14 437.425
PRISM 30 Jun 09:18:26 09:22:04 29° 263° (W) 09:25:44 437.425
PHONESAT 2.4 30 Jun 09:18:29 09:21:32 64° 188° (S) 09:24:35 2401.200-2431.200
AAUSAT CUBESAT 2 30 Jun 09:26:03 09:30:12 63° 101° (E) 09:34:17 437.432
CUBEBUG 2 30 Jun 09:29:50 09:34:26 60° 100° (E) 09:39:06 437.445
M-CUBED/EXP-1 PRIME 30 Jun 09:36:31 09:40:07 32° 103° (ESE) 09:43:58 437.505
RS-15 30 Jun 09:37:46 09:43:10 15° 94° (E) 09:48:41 29.354- 29.394
HO-68 30 Jun 09:40:04 09:47:12 65° 290° (WNW) 09:54:18 435.675
CUSAT 1 30 Jun 09:40:49 09:43:52 13° 295° (WNW) 09:46:43 437.405
ANTELSAT 30 Jun 09:44:39 09:48:29 32° 69° (ENE) 09:52:25 437.575/2403.000
CINEMA 3 30 Jun 09:45:45 09:49:46 31° 290° (WNW) 09:53:56 145.822/145.860
ZACube-1 30 Jun 09:48:05 09:52:26 42° 98° (E) 09:56:47 437.345
Oscar 11 30 Jun 09:54:23 09:58:39 51° 100° (E) 10:02:52 145.826/435.025
BEESAT 2 30 Jun 09:56:11 09:57:28 11° 38° (NE) 09:58:44 435.950
COMPASS 1 30 Jun 10:02:16 10:06:11 39° 288° (WNW) 10:10:04 437.405
FUNcube-1 30 Jun 10:04:29 10:09:01 60° 101° (E) 10:13:32 145.935
CANX-2 30 Jun 10:08:55 10:11:40 17° 295° (WNW) 10:14:25 2200.000
UWE-3 30 Jun 10:13:17 10:17:52 69° 286° (WNW) 10:22:31 435.000/436.395/437.385
DANDE 30 Jun 10:18:51 10:23:49 17° 297° (WNW) 10:28:30 436.750
PCSat 30 Jun 10:27:38 10:32:43 39° 53° (NE) 10:37:46 145.827
SEEDS 30 Jun 10:29:07 10:31:42 16° 295° (WNW) 10:34:17 437.485
CUTE 1.7 + AOD 2 30 Jun 10:29:27 10:31:09 12° 298° (WNW) 10:32:51 437.475
AUBIESAT-1 30 Jun 10:29:39 10:33:37 75° 290° (WNW) 10:37:53 437.475
NANOSAT C BR1 30 Jun 10:30:30 10:33:07 16° 65° (ENE) 10:35:44 145.865
QB50P1 30 Jun 10:34:16 10:37:12 19° 66° (ENE) 10:40:09 145.935-145.965
TIGRISAT 30 Jun 10:35:09 10:39:25 76° 256° (WSW) 10:43:52 435.000
POPSAT HIP 1 30 Jun 10:37:32 10:40:35 20° 66° (ENE) 10:43:39 437.405
ISS 30 Jun 10:38:01 10:40:15 17° 348° (NNW) 10:42:31 145.825
UNISAT 6 30 Jun 10:41:00 10:45:15 61° 259° (W) 10:49:38 437.425
HUMSAT D 30 Jun 10:44:38 10:48:42 39° 98° (E) 10:52:43 437.325/437.525
Cosmos 2491 30 Jun 10:48:13 10:55:52 33° 69° (ENE) 11:03:29 435.465 / 435.565
DUCHIFAT 1 30 Jun 10:49:15 10:52:36 24° 68° (ENE) 10:55:57 145.980
QB50P2 30 Jun 10:49:42 10:53:18 28° 69° (ENE) 10:56:57 145.880/145.840
BEESAT 3 30 Jun 10:50:14 10:54:08 52° 54° (NE) 10:57:59 437.485
POLYITAN 1 30 Jun 10:52:19 10:55:56 29° 69° (ENE) 10:59:35 437.675
PHONESAT 2.4 30 Jun 10:55:19 10:57:53 24° 204° (SSW) 11:00:26 2401.200-2431.200
DELFI C3 30 Jun 10:56:56 11:00:54 66° 284° (WNW) 11:04:49 145.870
AAUSAT CUBESAT 2 30 Jun 11:03:34 11:05:08 12° 297° (WNW) 11:06:42 437.432
CUBEBUG 2 30 Jun 11:07:53 11:10:35 15° 296° (WNW) 11:13:17 437.445
ESTCUBE 1 30 Jun 11:08:18 11:10:11 12° 90° (E) 11:12:04 437.505/2401.250
M-CUBED/EXP-1 PRIME 30 Jun 11:11:27 11:14:31 22° 296° (WNW) 11:17:46 437.505
ANTELSAT 30 Jun 11:21:49 11:25:15 23° 266° (W) 11:28:45 437.575/2403.000
ZACube-1 30 Jun 11:25:06 11:28:25 20° 294° (WNW) 11:31:44 437.345
HO-68 30 Jun 11:30:25 11:33:33 13° 310° (NW) 11:36:42 435.675
Oscar 11 30 Jun 11:31:46 11:34:21 16° 296° (WNW) 11:36:55 145.826/435.025
BEESAT 2 30 Jun 11:31:57 11:35:58 81° 57° (ENE) 11:39:57 435.950
BUGSAT 1 30 Jun 11:36:37 11:40:15 34° 71° (ENE) 11:43:54 437.445
RS-15 30 Jun 11:41:53 11:53:06 70° 116° (ESE) 12:05:00 29.354- 29.394
FUNcube-1 30 Jun 11:42:13 11:44:45 15° 297° (WNW) 11:47:18 145.935
CUBEBUG 1 30 Jun 11:45:03 11:48:18 20° 94° (E) 11:51:32 437.445
O/OREOS (USA 219) 30 Jun 11:57:35 12:01:52 42° 63° (ENE) 12:06:08 437.305
VELOX 1 30 Jun 11:58:06 12:01:47 26° 95° (E) 12:05:26 145.980
JAS-2 30 Jun 11:59:00 12:06:09 47° 69° (ENE) 12:12:39 435.910
NANOSAT C BR1 30 Jun 12:04:30 12:08:29 44° 261° (W) 12:12:31 145.865
QB50P1 30 Jun 12:08:49 12:12:41 38° 262° (W) 12:16:38 145.935-145.965
PCSat 30 Jun 12:11:16 12:15:59 31° 251° (WSW) 12:20:40 145.827
POPSAT HIP 1 30 Jun 12:12:18 12:16:08 35° 262° (W) 12:20:00 437.405
ISS 30 Jun 12:15:37 12:17:40 15° 8° (N) 12:19:43 145.825
HUMSAT D 30 Jun 12:20:58 12:24:02 19° 294° (WNW) 12:27:06 437.325/437.525
DUCHIFAT 1 30 Jun 12:24:33 12:28:10 28° 264° (W) 12:31:48 145.980
Cosmos 2504 30 Jun 12:25:21 12:29:34 15° 74° (ENE) 12:33:53 435.465 / 435.565
QB50P2 30 Jun 12:25:42 12:29:06 24° 265° (W) 12:32:31 145.880/145.840
SPROUT 30 Jun 12:26:00 12:29:26 23° 95° (E) 12:32:51 437.525
UKube-1 30 Jun 12:28:04 12:31:59 33° 98° (E) 12:35:52 .
POLYITAN 1 30 Jun 12:28:22 12:31:44 23° 265° (W) 12:35:07 437.675
YUBILEINY 30 Jun 12:28:40 12:37:04 56° 90° (E) 12:45:32 435.215
BEESAT 3 30 Jun 12:29:22 12:31:22 14° 251° (WSW) 12:33:22 437.485
AIST 2 30 Jun 12:31:04 12:34:22 22° 46° (NE) 12:37:39 435.215
AISAT 30 Jun 12:38:40 12:43:05 77° 102° (ESE) 12:47:29 437.250
50 SAT 30 Jun 12:39:41 12:43:23 88° 282° (WNW) 12:47:02 437.505
ESTCUBE 1 30 Jun 12:42:57 12:47:25 62° 286° (WNW) 12:51:50 437.505/2401.250
Cosmos 2491 30 Jun 12:44:40 12:53:05 56° 270° (W) 13:01:29 435.465 / 435.565
DX 1 30 Jun 12:51:31 12:55:52 77° 103° (ESE) 13:00:12 434.975-435.025
Oscar 19 30 Jun 13:10:52 13:15:55 60° 72° (ENE) 13:20:58 437.125/150
BUGSAT 1 30 Jun 13:13:00 13:15:44 18° 267° (W) 13:18:29 437.445
CUBEBUG 1 30 Jun 13:20:45 13:24:40 35° 290° (WNW) 13:28:36 437.445
VELOX 1 30 Jun 13:34:25 13:38:13 29° 292° (WNW) 13:42:00 145.980
O/OREOS (USA 219) 30 Jun 13:37:51 13:40:55 18° 259° (W) 13:43:59 437.305
TISAT 1 30 Jun 13:38:22 13:42:16 35° 98° (E) 13:46:09 437.305
ITAMSAT 1 30 Jun 13:39:40 13:43:15 19° 62° (ENE) 13:46:52 435.822/435.867
AO-7 30 Jun 13:41:43 13:47:18 20° 50° (NE) 13:52:55 29.400- 29.500
Gurwin Techsat 1B 30 Jun 13:44:17 13:49:27 54° 71° (ENE) 13:54:38 435.225
JAS-2 30 Jun 13:44:23 13:51:11 35° 264° (W) 13:57:31 435.910
ISS 30 Jun 13:51:41 13:54:47 38° 28° (NNE) 13:57:52 145.825
RS-15 30 Jun 13:55:38 14:06:27 42° 322° (NW) 14:17:50 29.354- 29.394
BEESAT 30 Jun 13:55:43 13:56:25 10° 89° (E) 13:57:06 436.000
ITUPSAT 1 30 Jun 13:57:44 13:58:54 11° 89° (E) 14:00:02 437.325
SPROUT 30 Jun 14:01:37 14:05:23 31° 291° (WNW) 14:09:10 437.525
UKube-1 30 Jun 14:04:29 14:07:50 22° 294° (WNW) 14:11:11 .
AIST 2 30 Jun 14:09:05 14:13:00 41° 243° (WSW) 14:16:54 435.215
SO-50 30 Jun 14:09:20 14:10:29 11° 106° (ESE) 14:11:38 436.795
Cosmos 2504 30 Jun 14:13:12 14:21:20 79° 95° (E) 14:30:04 435.465 / 435.565
AISAT 30 Jun 14:17:38 14:18:56 11° 299° (WNW) 14:20:13 437.250
YUBILEINY 30 Jun 14:26:37 14:34:14 33° 291° (WNW) 14:41:58 435.215
DX 1 30 Jun 14:30:20 14:31:26 11° 300° (WNW) 14:32:31 434.975-435.025
Oscar 19 30 Jun 14:52:28 14:55:38 16° 269° (W) 14:58:48 437.125/150
SWISSCUBE 30 Jun 15:04:56 15:09:43 62° 102° (ESE) 15:14:26 437.505
TISAT 1 30 Jun 15:14:36 15:17:40 20° 294° (WNW) 15:20:45 437.305
ITAMSAT 1 30 Jun 15:17:08 15:22:15 58° 259° (W) 15:27:26 435.822/435.867
Gurwin Techsat 1B 30 Jun 15:26:00 15:29:43 19° 268° (W) 15:33:27 435.225
ISS 30 Jun 15:28:19 15:31:07 26° 225° (SW) 15:33:55 145.825
BEESAT 30 Jun 15:29:58 15:34:46 82° 286° (WNW) 15:39:33 436.000
AO-7 30 Jun 15:30:32 15:38:52 83° 69° (ENE) 15:47:17 29.400- 29.500
ITUPSAT 1 30 Jun 15:32:28 15:37:18 79° 284° (WNW) 15:42:04 437.325
KKS-1 30 Jun 15:44:56 15:47:52 17° 93° (E) 15:50:47 437.445
SO-50 30 Jun 15:45:19 15:50:13 89° 132° (SE) 15:55:07 436.795
MOZHAYETS 4 30 Jun 15:50:40 15:54:01 19° 93° (E) 15:57:20
HORYU 2 30 Jun 16:07:56 16:11:41 28° 68° (ENE) 16:15:27 437.375
Cosmos 2504 30 Jun 16:09:31 16:15:47 23° 297° (WNW) 16:22:22 435.465 / 435.565
STARS 30 Jun 16:11:12 16:14:00 16° 93° (E) 16:16:46 437.465
RS-15 30 Jun 16:14:25 16:23:30 24° 355° (N) 16:32:47 29.354- 29.394
GONETS M04 30 Jun 16:36:45 16:40:01 13° 74° (ENE) 16:43:17
CUTE-I 30 Jun 16:38:21 16:39:36 11° 56° (NE) 16:40:52 437.470
SWISSCUBE 30 Jun 16:44:11 16:46:59 16° 298° (WNW) 16:49:47 437.505
NOAA 15 30 Jun 16:56:10 17:00:07 22° 63° (ENE) 17:04:03 137.62
Cosmos 2499 30 Jun 16:57:47 16:59:40 11° 71° (ENE) 17:01:33 435.465 / 435.565
AIST 1 30 Jun 17:02:27 17:06:45 75° 97° (E) 17:11:03
KKS-1 30 Jun 17:20:24 17:24:39 45° 289° (WNW) 17:28:53 437.445
BRITE-PL 30 Jun 17:21:07 17:25:23 30° 70° (ENE) 17:29:24 437.365/2234.400
CUBESAT XI-V 30 Jun 17:24:05 17:27:39 22° 93° (E) 17:31:12 437.345
AO-7 30 Jun 17:26:37 17:32:30 21° 268° (W) 17:38:26 29.400- 29.500
MOZHAYETS 4 30 Jun 17:26:59 17:31:22 42° 289° (WNW) 17:35:42
SO-50 30 Jun 17:28:16 17:31:23 17° 322° (NW) 17:34:29 436.795
Cubesat XI-IV 30 Jun 17:40:18 17:45:11 38° 68° (ENE) 17:50:07 437.490
GOMX 1 30 Jun 17:44:01 17:47:27 22° 68° (ENE) 17:50:45 467.674
HORYU 2 30 Jun 17:44:22 17:48:09 28° 264° (W) 17:52:00 437.375
LilacSat-2 30 Jun 17:45:09 17:48:28 30° 70° (ENE) 17:51:49 437.200
STARS 30 Jun 17:46:21 17:50:35 46° 288° (WNW) 17:54:48 437.465
NOAA 18 30 Jun 17:52:42 17:58:01 56° 70° (ENE) 18:03:23 137.9125
CUTE-I 30 Jun 18:13:23 18:18:43 76° 74° (ENE) 18:24:06 437.470
HO-68 30 Jun 18:23:33 18:28:25 20° 55° (NE) 18:33:18 435.675
GONETS M04 30 Jun 18:26:30 18:35:08 72° 94° (E) 18:43:47
RS-15 30 Jun 18:30:30 18:41:17 34° 30° (NNE) 18:52:05 29.354- 29.394
CUSAT 1 30 Jun 18:30:34 18:34:03 80° 77° (ENE) 18:36:53 437.405
DOVE 4 30 Jun 18:32:18 18:36:01 30° 70° (ENE) 18:39:40 437.250
NOAA 15 30 Jun 18:34:23 18:39:31 51° 260° (W) 18:44:41 137.62
Cosmos 2499 30 Jun 18:42:37 18:50:48 63° 92° (E) 18:59:29 435.465 / 435.565
BRITE-PL 30 Jun 18:59:32 19:03:50 29° 264° (W) 19:07:53 437.365/2234.400
CUBESAT XI-V 30 Jun 19:00:54 19:05:08 37° 290° (WNW) 19:09:21 437.345
CINEMA 3 30 Jun 19:11:23 19:14:37 23° 67° (ENE) 19:17:54 145.822/145.860
DANDE 30 Jun 19:14:23 19:19:08 89° 279° (W) 19:22:38 436.750
COMPASS 1 30 Jun 19:19:38 19:21:36 13° 63° (ENE) 19:23:35 437.405
LilacSat-2 30 Jun 19:20:08 19:22:49 18° 267° (W) 19:25:31 437.200
Cubesat XI-IV 30 Jun 19:20:46 19:25:19 28° 265° (W) 19:29:54 437.490
GOMX 1 30 Jun 19:21:14 19:25:23 34° 262° (W) 19:29:21 467.674
CANX-2 30 Jun 19:24:55 19:28:45 32° 70° (ENE) 19:32:36 2200.000
NOAA 18 30 Jun 19:35:07 19:39:01 20° 267° (W) 19:42:56 137.9125
STRAND 1 30 Jun 19:39:54 19:44:40 37° 97° (E) 19:49:24 437.568
AO-85 30 Jun 19:40:04 19:41:41 11° 106° (ESE) 19:43:16 145.980
